CZ-2C DEB

Satellite information

Favourite Embed

Satellite Type and Status

DEBRISIN ORBIT

Key statistics

Satellite CZ-2C DEB at a glance.

Uptime

4535

Days in orbit

Revolutions

≈ 14.9

Per day

Orbit

SSO

Sun Synchronous Orbit

Inclination

98.2

Latest

Satellite identification and parameters

Extended collection of information and parameters for CZ-2C DEB.

Object identification

Identified? True

Debris? True

Object name: CZ-2C DEB

International designator: 2013-035C

Object number (NORAD): 39204

Object ID (CCSDS): 39204

Country: PEOPLES REPUBLIC OF CHINA (PRC)

Current information (Y/N): Y

RCS size: SMALL

Orbital parameters

Period: 96.444 minutes

Inclination: 98.2249 deg

SMA: 6966.412 km

Apoapsis: 620.911 km

Periapsis: 555.642 km

RAAN: 248.9915 deg

Eccentricy: 0.00468453

Argument of periapsis: 171.7069 deg

Mean anomaly: 188.4934 deg

Mean motion: 14.93100536 rev/day

Mean motion (dot): 0.0002425 rev/day2

B* drag term: 0.0022772367 1/REarth

Two-line elements (TLE)

Creation date: Dec. 12, 2025, 10:14 a.m.

Reference frame: TEME

Reference center: EARTH

Epoch: Dec. 12, 2025, 7:09 a.m. UTC

TLE line 0: 0 CZ-2C DEB

TLE line 1: 1 39204U 13035C 25346.29819232 .00024250 00000-0 22772-2 0 9991

TLE line 2: 2 39204 98.2249 248.9915 0046845 171.7069 188.4934 14.93100536661631

Live tracking on map

Real-time ground track for satellite CZ-2C DEB.

In-orbit conjunctions

A list of the most updated potential collisions computed for object CZ-2C DEB.

Target Orbit TCA Probability of collision Miss distance Type
PSLV DEB SSO 2025-12-07 06:46:37 0.001013472 50.0 (m) DEBRIS
OBJECT J SSO 2025-04-27 03:42:42 0.0001003097 766.0 (m) UNKNOWN
OBJECT D SSO 2025-03-28 03:04:53 0.0003435759 425.0 (m) UNKNOWN
OBJECT J SSO 2025-03-06 17:52:43 0.0004555203 490.0 (m) UNKNOWN
FENGYUN 1C DEB SSO 2024-11-09 17:28:14 0.0001207649 922.0 (m) DEBRIS

Associated space launch

CZ-2C DEB was lifted into orbit during the mission ‘Long March 2C | Shijian 11-05’, on board a Long March 2 space rocket.

The launch took place on July 15, 2013, 9:27 a.m. from Launch Area 94 (SLS-2 / 603).

For more information about the launch, click the button.

Launch to space Long March 2C | Shijian 11-05
Long March 2C | Shijian 11-05

Agency: N/A

Status: Launch Successful

Launch date: July 15, 2013, 9:27 a.m. UTC

Rocket: Long March 2

Launch pad: Launch Area 94 (SLS-2 / 603)

Location: Jiuquan Satellite Launch Center, People's Republic of China

...

Latest news about this satellite

There are no fresh news available about this satellite. Check back as we update our databases every day.


Newsletter sign-up

Weekly statistics, charts and insights to help you stay on top of the space industry.